Weather History for Dubrovnik, Croatia

Change the Weather History Date:

Thursday, December 13, 2012

  Actual Average (LYTV) Record (LYTV)
Temperature  
Mean Temperature 40 °F -  
Max Temperature 49 °F 54 °F 68 °F (2003)
Min Temperature 30 °F 37 °F 22 °F (2012)
Degree Days  
Heating Degree Days 26    
Moisture  
Dew Point 17 °F    
Average Humidity 40    
Maximum Humidity 61    
Minimum Humidity 13    
Precipitation  
Precipitation 0.00 in - - ()
Sea Level Pressure  
Sea Level Pressure 30.25 in    
Wind  
Wind Speed 13 mph ()    
Max Wind Speed 23 mph    
Max Gust Speed -    
Visibility 8.1 miles    
Events      
Averages and records for this station are not official NWS values.
T = Trace of Precipitation, MM = Missing Value Source: Averaged Metar Reports

Daily Weather History Graph

Daily Weather History Graph

Search for Another Location

Airport:

Trip Planner

Search our weather history database for the weather conditions in past years. The results will help you decide how hot, cold, wet, or windy it might be!

Date:

Astronomy

Dec. 13, 2012 Rise Set
Actual Time 7:08 AM CET 4:14 PM CET
Civil Twilight 6:36 AM CET 4:46 PM CET
Nautical Twilight 6:00 AM CET 5:21 PM CET
Astronomical Twilight 5:26 AM CET 5:55 PM CET
Moon 6:58 AM CET (12/13) 4:36 PM CET (12/13)
Length of Visible Light 10h 09m
Length of Day
9h 05m
New Moon, 0% of the Moon is Illuminated
Dec 13
New Moon
Dec 20
First Quarter
Dec 28
Full
Jan 5
Last Quarter
Jan 11
New

Hourly Weather History & Observations

Time (CET) Temp. Windchill Dew Point Humidity Pressure Visibility Wind Dir Wind Speed Gust Speed Precip Events Conditions
12:00 AM 32.0 °F 19.2 °F 10.4 °F 41% 30.18 in - NNE 23.0 mph - N/A   Clear
12:30 AM 32.0 °F 19.5 °F 10.4 °F 41% 30.18 in - NNE 21.9 mph - N/A   Clear
1:00 AM 31 °F - 10 °F 28% 30.23 in 12 mi North 22.4 mph - -  
1:00 AM 32.0 °F 19.5 °F 10.4 °F 41% 30.18 in - NNE 21.9 mph - N/A   Clear
1:30 AM 32.0 °F 20.1 °F 10.4 °F 41% 30.18 in - NNE 19.6 mph - N/A   Clear
2:00 AM 33.8 °F 22.8 °F 6.8 °F 32% 30.21 in - NNE 18.4 mph - N/A   Clear
2:30 AM 32.0 °F 19.8 °F 8.6 °F 38% 30.21 in - North 20.7 mph - N/A   Clear
3:00 AM 32.0 °F 20.5 °F 8.6 °F 38% 30.21 in - North 18.4 mph - N/A   Clear
3:30 AM 33.8 °F 22.5 °F 5.0 °F 30% 30.21 in - North 19.6 mph - N/A   Clear
4:00 AM 35 °F - 3 °F 13% 30.24 in 12 mi North 13.4 mph - -  
4:00 AM 33.8 °F 23.9 °F 3.2 °F 28% 30.21 in - North 15.0 mph - N/A   Clear
4:30 AM 32.0 °F 20.5 °F 5.0 °F 32% 30.21 in - North 18.4 mph - N/A   Clear
5:00 AM 32.0 °F 20.8 °F 3.2 °F 30% 30.21 in - North 17.3 mph - N/A   Clear
5:30 AM 33.8 °F 23.5 °F 3.2 °F 28% 30.21 in - North 16.1 mph - N/A   Clear
6:00 AM 33.8 °F 23.9 °F 3.2 °F 28% 30.21 in - North 15.0 mph - N/A   Clear
6:30 AM 33.8 °F 23.2 °F 3.2 °F 28% 30.21 in - North 17.3 mph - N/A   Clear
7:00 AM 34 °F - 3 °F 14% 30.26 in 12 mi NNE 20.1 mph - -  
7:00 AM 33.8 °F 22.2 °F 3.2 °F 28% 30.21 in - NNE 20.7 mph - N/A   Clear
7:30 AM 35.6 °F 28.6 °F -0.4 °F 22% 30.24 in - North 9.2 mph - N/A   Clear
8:00 AM 35.6 °F 27.5 °F 1.4 °F 24% 30.24 in - North 11.5 mph - N/A   Clear
8:30 AM 35.6 °F 26.2 °F 6.8 °F 30% 30.24 in - NNE 15.0 mph - N/A   Clear
9:00 AM 39.2 °F 33.0 °F 8.6 °F 28% 30.24 in - NNE 9.2 mph - N/A   Clear
9:30 AM 41.0 °F 37.1 °F 14.0 °F 33% 30.27 in - NE 5.8 mph - N/A   Clear
10:00 AM 44 °F - 13 °F 16% 30.30 in 25 mi Calm Calm - -   Scattered Clouds
10:00 AM 42.8 °F - 14.0 °F 31% 30.27 in - Variable 1.2 mph - N/A   Clear
10:30 AM 44.6 °F - 15.8 °F 31% 30.27 in - Calm Calm - N/A   Clear
11:00 AM 44.6 °F 43.1 °F 17.6 °F 34% 30.27 in - Variable 3.5 mph - N/A   Clear
11:30 AM 44.6 °F - 17.6 °F 34% 30.27 in - Variable 1.2 mph - N/A   Clear
12:00 PM 46.4 °F 45.2 °F 19.4 °F 34% 30.27 in - WNW 3.5 mph - N/A   Clear
12:30 PM 48.2 °F - 19.4 °F 32% 30.24 in - Variable 1.2 mph - N/A   Clear
1:00 PM 46 °F - 19 °F 22% 30.28 in 25 mi NE 4.5 mph - -   Scattered Clouds
1:00 PM 46.4 °F 43.5 °F 19.4 °F 34% 30.24 in - NE 5.8 mph - N/A   Clear
1:30 PM 46.4 °F 45.2 °F 23.0 °F 40% 30.24 in - Variable 3.5 mph - N/A   Clear
2:00 PM 46.4 °F 45.2 °F 23.0 °F 40% 30.24 in - South 3.5 mph - N/A   Clear
2:30 PM 44.6 °F 42.2 °F 23.0 °F 43% 30.24 in - SE 4.6 mph - N/A   Clear
3:00 PM 44.6 °F 40.7 °F 26.6 °F 49% 30.24 in 6.2 mi SE 6.9 mph - N/A   Scattered Clouds
3:30 PM 42.8 °F 38.0 °F 26.6 °F 53% 30.24 in 6.2 mi ESE 8.1 mph - N/A   Scattered Clouds
4:00 PM 42 °F - 25 °F 38% 30.29 in 25 mi East 8.9 mph - -   Scattered Clouds
4:00 PM 41.0 °F 35.8 °F 24.8 °F 53% 30.24 in 6.2 mi ESE 8.1 mph - N/A   Scattered Clouds
4:30 PM 41.0 °F 35.8 °F 24.8 °F 53% 30.27 in 6.2 mi East 8.1 mph - N/A   Scattered Clouds
5:00 PM 41.0 °F 35.2 °F 24.8 °F 53% 30.27 in 6.2 mi East 9.2 mph - N/A   Scattered Clouds
5:30 PM 41.0 °F 35.2 °F 24.8 °F 53% 30.27 in 6.2 mi East 9.2 mph - N/A   Mostly Cloudy
6:00 PM 41.0 °F 35.2 °F 26.6 °F 57% 30.27 in 6.2 mi East 9.2 mph - N/A   Mostly Cloudy
6:30 PM 41.0 °F 35.8 °F 26.6 °F 57% 30.27 in 6.2 mi East 8.1 mph - N/A   Mostly Cloudy
7:00 PM 41 °F - 28 °F 48% 30.30 in 19 mi East 8.9 mph - -   Mostly Cloudy
7:00 PM 41.0 °F 35.2 °F 28.4 °F 61% 30.27 in 6.2 mi East 9.2 mph - N/A   Mostly Cloudy
7:30 PM 41.0 °F 34.7 °F 28.4 °F 61% 30.27 in 6.2 mi East 10.4 mph - N/A   Mostly Cloudy
8:00 PM 41.0 °F 35.2 °F 28.4 °F 61% 30.27 in 6.2 mi East 9.2 mph - N/A   Overcast
8:30 PM 41.0 °F 34.7 °F 28.4 °F 61% 30.27 in 6.2 mi East 10.4 mph - N/A   Overcast
9:00 PM 41.0 °F 34.7 °F 28.4 °F 61% 30.27 in 6.2 mi East 10.4 mph - N/A   Overcast
9:30 PM 41.0 °F 34.7 °F 28.4 °F 61% 30.27 in 6.2 mi East 10.4 mph - N/A   Mostly Cloudy
10:00 PM 41 °F - 29 °F 51% 30.31 in 19 mi East 11.2 mph - -   Overcast
10:00 PM 41.0 °F 34.7 °F 28.4 °F 61% 30.27 in 6.2 mi East 10.4 mph - N/A   Mostly Cloudy
10:30 PM 41.0 °F 34.7 °F 28.4 °F 61% 30.27 in 6.2 mi East 10.4 mph - N/A   Mostly Cloudy
11:00 PM 41.0 °F 34.3 °F 28.4 °F 61% 30.27 in 6.2 mi East 11.5 mph - N/A   Mostly Cloudy
11:30 PM 41.0 °F 33.9 °F 28.4 °F 61% 30.27 in 6.2 mi East 12.7 mph - N/A   Mostly Cloudy